This is the latest recevied weather packets stored in our database for station/object HB9FHL-13. If no packets are shown the sender has not sent any weather packets the latest 10 day(s).
| Time | Temp. | Humidity | Pressure | Rain* | Wind** | Luminosity | Snow |
|---|---|---|---|---|---|---|---|
| 1777627544 | 13.33° C | - | 1026.6 hPa | 0 mm | - | - | - |
| 1777627241 | 12.22° C | - | 1025.7 hPa | 0 mm | - | - | - |
| 1777626941 | 12.78° C | - | 1031.5 hPa | 0 mm | - | - | - |
| 1777626639 | 12.22° C | - | 1027.7 hPa | 0 mm | - | - | - |
| 1777626339 | 12.78° C | - | 1022.5 hPa | 0 mm | - | - | - |
| 1777626038 | 11.67° C | - | 1025.2 hPa | 0 mm | - | - | - |
| 1777625737 | 12.22° C | - | 1029.9 hPa | 0 mm | - | - | - |
| 1777625436 | 11.11° C | - | 1026.9 hPa | 0 mm | - | - | - |
| 1777625136 | 12.22° C | - | 1026.5 hPa | 0 mm | - | - | - |
| 1777624836 | 12.22° C | - | 1025.4 hPa | 0 mm | - | - | - |
| 1777624535 | 11.67° C | - | 1028.5 hPa | 0 mm | - | - | - |
| 1777624375 | 11.11° C | - | 1026.6 hPa | 0 mm | - | - | - |
| 1777623918 | 11.11° C | - | 1027.6 hPa | 0 mm | - | - | - |
| 1777623637 | 11.67° C | - | 1027.6 hPa | 0 mm | - | - | - |
| 1777623311 | 10.56° C | - | 1024.7 hPa | 0 mm | - | - | - |
| 1777623010 | 11.67° C | - | 1024.4 hPa | 0 mm | - | - | - |
| 1777622339 | 10.56° C | - | 1026.1 hPa | 0 mm | - | - | - |
| 1777622062 | 12.22° C | - | 1028.4 hPa | 0 mm | - | - | - |
| 1777621737 | 11.67° C | - | 1022.2 hPa | 0 mm | - | - | - |
| 1777621436 | 11.11° C | - | 1024.7 hPa | 0 mm | - | - | - |
| 1777621136 | 11.67° C | - | 1027.1 hPa | 0 mm | - | - | - |
| 1777620835 | 11.67° C | - | 1023.2 hPa | 0 mm | - | - | - |
| 1777620535 | 11.67° C | - | 1026.9 hPa | 0 mm | - | - | - |
| 1777620268 | 10.56° C | - | 1026.9 hPa | 0 mm | - | - | - |
| 1777620237 | 10.56° C | - | 1026.9 hPa | 0 mm | - | - | - |
* Rain since midnight (hover to see other rain measurements)
** Current wind speed in m/s (hover to see current wind gust speed)